(346827) = 2003 SW305 = 2009 DL3

Discovered at Sierra Stars on 2009-02-19 by F. Tozzi.

Orbit

Orbit type: Main Belt

Note: WebGL enabled browser required.

epoch2023-09-13.0
epoch JD2460200.5
perihelion date2021-03-28.26740
perihelion JD2459301.76740
argument of perihelion (°)144.61579
ascending node (°)322.22977
inclination (°)11.48341
eccentricity0.2230334
perihelion distance (AU)2.0039568
Tisserand w.r.t. Jupiter3.4
ΔV w.r.t. Earth (km/sec)9.5
semimajor axis (AU)2.5792057
mean anomaly (°)213.84809
mean daily motion (°/day)0.23794410
aphelion distance (AU)3.154
period (years)4.14
P-vector [x]-0.29689260
P-vector [y]0.82384961
P-vector [z]0.48283187
Q-vector [x]-0.94709335
Q-vector [y]-0.18948018
Q-vector [z]-0.25905878
absolute magnitude16.5
phase slope0.15
uncertainty0
referenceMPEC 2023-R158
observations used542
oppositions11
arc length (days)7297
first opposition used2003
last opposition used2023
residual rms (arc-secs)0.66
perturbers coarse indicatorM-v
perturbers precise indicator003Ek
first observation date used2003-09-19.0
last observation date used2023-09-11.0
computer nameMPCLINUX
JD of orbit computation2456406.152471
perihelion JD uncertainty (days)1.2661E-04
argument of perihelion uncertainty (°)4.8944E-05
ascending node uncertainty (°)2.0121E-05
inclination uncertainty (°)1.0068E-05
eccentricity uncertainty 8.9621E-08
perihelion distance uncertainty (AU)2.4131E-07
Minimum Orbit Intersection Distances (in AU)
for orbit epoch: 2460200.5, reference: E2023-RF8
Mercury1.68651
Venus1.28872
Earth1.03033
Mars0.38304
Jupiter1.99655
Saturn6.84574
Uranus16.098
Neptune27.0725

Observations

550 total observations over interval: 2003 09 19.21014 – 2023 09 11.278528
These data are available for download (format description).

Date (UT) J2000 RA J2000 Dec Magn Location Ref
2003 09 19.21014 23 53 16.08 +11 43 38.4 20.5 V 691 – Steward Observatory, Kitt Peak-Spacewatch MPS 278814
2003 09 19.23750 23 53 14.40 +11 43 35.7 20.4 V 691 – Steward Observatory, Kitt Peak-Spacewatch MPS 278814
2003 09 19.26438 23 53 12.72 +11 43 33.0 20.5 V 691 – Steward Observatory, Kitt Peak-Spacewatch MPS 278814
2003 09 30.25116 23 42 05.48 +11 15 28.5 20.3   704 – Lincoln Laboratory ETS, New Mexico MPS 87392
2003 09 30.26448 23 42 04.69 +11 15 26.6 20.2   704 – Lincoln Laboratory ETS, New Mexico MPS 87392
2003 09 30.27737 23 42 03.95 +11 15 24.1 20.4   704 – Lincoln Laboratory ETS, New Mexico MPS 87392
2003 09 30.29054 23 42 03.02 +11 15 21.8 20.3   704 – Lincoln Laboratory ETS, New Mexico MPS 87392
2003 10 03.27882 23 39 06.80 +11 05 17.4 20.1 V 691 – Steward Observatory, Kitt Peak-Spacewatch MPS 87392
2003 10 03.30701 23 39 05.11 +11 05 11.6 20.2 V 691 – Steward Observatory, Kitt Peak-Spacewatch MPS 87392
2003 10 03.33439 23 39 03.48 +11 05 05.8 20.1 V 691 – Steward Observatory, Kitt Peak-Spacewatch MPS 87392
2003 10 25.11365 23 22 07.59 +09 41 18.0 21.4 V 691 – Steward Observatory, Kitt Peak-Spacewatch MPS 278814
2003 10 25.14227 23 22 06.67 +09 41 11.8 20.7 V 691 – Steward Observatory, Kitt Peak-Spacewatch MPS 278814
2003 10 25.17189 23 22 05.66 +09 41 05.4 20.6 V 691 – Steward Observatory, Kitt Peak-Spacewatch MPS 278814
2005 03 13.26648 11 37 32.21 -09 51 58.0 18.5   703 – Catalina Sky Survey MPS 280466
2005 03 13.27301 11 37 31.75 -09 51 58.2 18.2   703 – Catalina Sky Survey MPS 280466
2005 03 13.27956 11 37 31.33 -09 51 57.7 18.3   703 – Catalina Sky Survey MPS 280466
2005 03 13.28613 11 37 30.89 -09 51 57.1 18.3   703 – Catalina Sky Survey MPS 280466
2008 10 02.49028 08 48 23.68 +24 46 08.3 20.5 V G96 – Mt. Lemmon Survey MPS 278814
2008 10 02.49289 08 48 24.04 +24 46 06.6 20.2 V G96 – Mt. Lemmon Survey MPS 278814
2008 10 02.49553 08 48 24.37 +24 46 05.5 20.7 V G96 – Mt. Lemmon Survey MPS 278814
2008 10 02.49811 08 48 24.69 +24 46 03.9 20.5 V G96 – Mt. Lemmon Survey MPS 278814
2008 12 29.40803 10 47 09.34 +10 19 48.6 19.8 V 703 – Catalina Sky Survey MPS 278814
2008 12 29.41521 10 47 09.56 +10 19 45.5 19.9 V 703 – Catalina Sky Survey MPS 278814
2008 12 29.42253 10 47 09.63 +10 19 41.9 20.2 V 703 – Catalina Sky Survey MPS 278814
2008 12 29.42986 10 47 09.74 +10 19 39.3 19.5 V 703 – Catalina Sky Survey MPS 278814
2009 01 16.47299 10 46 41.01 +08 22 17.6 19.3 V 691 – Steward Observatory, Kitt Peak-Spacewatch MPS 278814
2009 01 16.47889 10 46 40.93 +08 22 15.3 19.2 V 691 – Steward Observatory, Kitt Peak-Spacewatch MPS 278814
2009 01 16.49452 10 46 40.55 +08 22 10.7 19.3 V 691 – Steward Observatory, Kitt Peak-Spacewatch MPS 278814
2009 01 16.49722 10 46 40.48 +08 22 09.8 19.3 V 691 – Steward Observatory, Kitt Peak-Spacewatch MPS 278814
2009 01 16.51285 10 46 40.11 +08 22 04.8 19.2 V 691 – Steward Observatory, Kitt Peak-Spacewatch MPS 278814
2009 01 16.51531 10 46 40.06 +08 22 04.0 19.3 V 691 – Steward Observatory, Kitt Peak-Spacewatch MPS 278814
2009 01 25.41775 10 42 07.21 +07 39 45.4 19.4 V 691 – Steward Observatory, Kitt Peak-Spacewatch MPS 278814
2009 01 25.43035 10 42 06.70 +07 39 42.2 19.4 V 691 – Steward Observatory, Kitt Peak-Spacewatch MPS 278814
2009 01 25.44292 10 42 06.16 +07 39 39.2 19.4 V 691 – Steward Observatory, Kitt Peak-Spacewatch MPS 278814
2009 02 03.38773 10 34 57.36 +07 07 32.0 18.9 V G96 – Mt. Lemmon Survey MPS 278814
2009 02 03.39333 10 34 57.03 +07 07 31.0 18.9 V G96 – Mt. Lemmon Survey MPS 278814
2009 02 03.39887 10 34 56.71 +07 07 30.0 18.9 V G96 – Mt. Lemmon Survey MPS 278814
2009 02 03.40448 10 34 56.38 +07 07 29.2 18.9 V G96 – Mt. Lemmon Survey MPS 278814
2009 02 16.34617 10 21 30.99 +06 36 32.2 18.3 V 703 – Catalina Sky Survey MPS 277740
2009 02 16.35292 10 21 30.63 +06 36 31.9 18.3 V 703 – Catalina Sky Survey MPS 277740
2009 02 16.35951 10 21 30.09 +06 36 30.4 18.7 V 703 – Catalina Sky Survey MPS 277740
2009 02 16.36617 10 21 29.70 +06 36 30.3 18.4 V 703 – Catalina Sky Survey MPS 277740
2009 02 19.32668 10 18 11.06 +06 31 26.3 18.8 R G68 – Sierra Stars Observatory, Markleeville MPS 277740
2009 02 19.34080 10 18 10.08 +06 31 24.8 18.6 R G68 – Sierra Stars Observatory, Markleeville MPS 277740
2009 02 19.35515 10 18 09.11 +06 31 23.8 18.5 R G68 – Sierra Stars Observatory, Markleeville MPS 277740
2009 02 19.36927 10 18 08.12 +06 31 22.1 18.3 R G68 – Sierra Stars Observatory, Markleeville MPS 277740
2009 02 20.32298 10 17 04.04 +06 29 51.0 18.8 R G68 – Sierra Stars Observatory, Markleeville MPS 277740
2009 02 20.33733 10 17 03.09 +06 29 50.8 18.3 R G68 – Sierra Stars Observatory, Markleeville MPS 277740
2009 02 20.35145 10 17 02.04 +06 29 48.2 18.7 R G68 – Sierra Stars Observatory, Markleeville MPS 277740
2009 02 20.36557 10 17 01.11 +06 29 47.7 18.7 R G68 – Sierra Stars Observatory, Markleeville MPS 277740
2009 02 20.87767 10 16 26.98 +06 29 01.4 18.3 C B40 – Skylive Observatory, Catania MPS 277740
2009 02 20.88460 10 16 26.55 +06 28 59.6 18.3 C B40 – Skylive Observatory, Catania MPS 277740
2009 02 20.89027 10 16 26.09 +06 29 00.7 18.7 C B40 – Skylive Observatory, Catania MPS 277740
2009 02 21.89223 10 15 19.03 +06 27 30.2 18.7 V J75 – OAM Observatory, La Sagra MPS 279702
2009 02 21.90535 10 15 18.05 +06 27 28.6 18.3 V J75 – OAM Observatory, La Sagra MPS 279702
2009 02 21.91848 10 15 17.16 +06 27 28.6 18.4 V J75 – OAM Observatory, La Sagra MPS 279702
2009 02 22.36252 10 14 47.11 +06 26 49.7 18.7 V G96 – Mt. Lemmon Survey MPS 277740
2009 02 22.37074 10 14 46.53 +06 26 49.0 18.7 V G96 – Mt. Lemmon Survey MPS 277740
2009 02 22.37889 10 14 45.99 +06 26 48.4 19.0 V G96 – Mt. Lemmon Survey MPS 277740
2009 02 22.38706 10 14 45.42 +06 26 47.7 18.9 V G96 – Mt. Lemmon Survey MPS 277740
2009 02 22.89264 10 14 12.10 +06 26 03.9 18.3 V J75 – OAM Observatory, La Sagra MPS 279702
2009 02 22.90444 10 14 11.43 +06 26 02.3 18.8 V J75 – OAM Observatory, La Sagra MPS 279702
2009 02 22.91625 10 14 10.60 +06 26 02.3 18.4 V J75 – OAM Observatory, La Sagra MPS 279702
2009 02 23.27462 10 13 46.58 +06 25 33.1 18.5   704 – Lincoln Laboratory ETS, New Mexico MPS 277740
2009 02 23.28612 10 13 45.75 +06 25 30.7 19.1   704 – Lincoln Laboratory ETS, New Mexico MPS 277740
2009 02 23.29809 10 13 44.94 +06 25 31.5 19.1   704 – Lincoln Laboratory ETS, New Mexico MPS 277740
2009 02 23.30951 10 13 44.05 +06 25 30.4 19.6   704 – Lincoln Laboratory ETS, New Mexico MPS 277740
2009 02 23.32096 10 13 43.37 +06 25 28.9 18.9   704 – Lincoln Laboratory ETS, New Mexico MPS 277740
2009 02 23.92183 10 13 03.72 +06 24 38.1 18.2 V J75 – OAM Observatory, La Sagra MPS 279702
2009 02 23.93492 10 13 02.83 +06 24 37.4 18.5 V J75 – OAM Observatory, La Sagra MPS 279702
2009 02 23.94792 10 13 01.93 +06 24 36.2 18.3 V J75 – OAM Observatory, La Sagra MPS 279702
2009 02 28.25872 10 08 22.24 +06 19 03.0 18.7   704 – Lincoln Laboratory ETS, New Mexico MPS 278814
2009 02 28.27064 10 08 21.41 +06 19 02.0 19.3   704 – Lincoln Laboratory ETS, New Mexico MPS 278814
2009 02 28.28258 10 08 20.67 +06 19 01.3 18.9   704 – Lincoln Laboratory ETS, New Mexico MPS 278814
2009 02 28.29403 10 08 19.87 +06 19 00.1 19.2   704 – Lincoln Laboratory ETS, New Mexico MPS 278814
2009 03 14.89654 09 55 10.78 +06 01 16.8 19.0 V J75 – OAM Observatory, La Sagra MPS 281374
2009 03 14.90956 09 55 10.16 +06 01 16.3 19.0 V J75 – OAM Observatory, La Sagra MPS 281374
2009 03 14.92258 09 55 09.48 +06 01 16.5 18.5 V J75 – OAM Observatory, La Sagra MPS 281374
2009 03 19.22666 09 52 22.98 +05 55 17.6 19.1   704 – Lincoln Laboratory ETS, New Mexico MPS 280466
2009 03 19.24981 09 52 22.11 +05 55 16.1 19.9   704 – Lincoln Laboratory ETS, New Mexico MPS 280466
2009 03 19.26151 09 52 21.66 +05 55 14.7 19.7   704 – Lincoln Laboratory ETS, New Mexico MPS 280466
2009 03 29.23946 09 48 14.91 +05 38 06.6 19.3   704 – Lincoln Laboratory ETS, New Mexico MPS 282706
2009 03 29.25159 09 48 14.66 +05 38 04.6 19.7   704 – Lincoln Laboratory ETS, New Mexico MPS 282706
2009 03 29.28735 09 48 14.05 +05 37 59.6 20.0   704 – Lincoln Laboratory ETS, New Mexico MPS 282706
2011 08 31.34308 22 15 23.573 -06 45 17.21 20.7 g F51 – Pan-STARRS 1, Haleakala MPS 390627
